DW6064 Weather Reports


Display with metric or nautical units.
time (UTC)temp
F
wind
direction
speed
MPH
gust
MPH
rain 1hr
in
rain 24hr
in
rain mn
in
humidity
%
barometer
mb
20260506024033 70 165 7.0 9.0 0.00 0.00 0.00 41 1008.5
20260506023524 70 168 6.0 9.0 0.00 0.00 0.00 40 1008.5
20260506023045 70 153 5.0 10.0 0.00 0.00 0.00 41 1008.4
20260506022542 71 173 6.0 8.0 0.00 0.00 0.00 40 1008.5
20260506022043 71 161 7.0 10.0 0.00 0.00 0.00 39 1008.6
20260506021540 71 162 8.0 11.0 0.00 0.00 0.00 39 1008.5
20260506021034 72 167 8.0 11.0 0.00 0.00 0.00 39 1008.5
20260506020525 72 162 9.0 13.0 0.00 0.00 0.00 38 1008.4
20260506020044 72 161 10.0 13.0 0.00 0.00 0.00 39 1008.4
20260506015541 72 186 11.0 13.0 0.00 0.00 0.00 39 1008.4
20260506015037 72 165 11.0 13.0 0.00 0.00 0.00 39 1008.4
20260506014533 72 173 10.0 14.0 0.00 0.00 0.00 39 1008.4
20260506014026 72 151 10.0 13.0 0.00 0.00 0.00 40 1008.2
20260506013541 72 167 9.0 13.0 0.00 0.00 0.00 40 1008.3
20260506013034 72 159 9.0 14.0 0.00 0.00 0.00 40 1008.2
20260506012525 72 158 9.0 12.0 0.00 0.00 0.00 40 1008.0
20260506012038 72 148 8.0 11.0 0.00 0.00 0.00 40 1008.0
20260506011532 72 178 9.0 12.0 0.00 0.00 0.00 40 1008.0
20260506011026 72 169 8.0 13.0 0.00 0.00 0.00 41 1007.8
20260506010543 72 169 6.0 9.0 0.00 0.00 0.00 41 1007.8
20260506010044 73 155 6.0 9.0 0.00 0.00 0.00 40 1007.8
20260506005542 73 180 6.0 8.0 0.00 0.00 0.00 40 1007.7
20260506005042 73 165 6.0 9.0 0.00 0.00 0.00 39 1007.7
20260506004540 73 188 5.0 7.0 0.00 0.00 0.00 39 1007.7
20260506004036 74 171 6.0 8.0 0.00 0.00 0.00 39 1007.8
20260506003531 74 167 6.0 8.0 0.00 0.00 0.00 39 1007.7
20260506003026 74 176 6.0 9.0 0.00 0.00 0.00 39 1007.7
20260506002537 75 182 6.0 9.0 0.00 0.00 0.00 38 1007.5
20260506002039 75 166 8.0 11.0 0.00 0.00 0.00 38 1007.5
20260506001530 75 175 8.0 11.0 0.00 0.00 0.00 38 1007.4
20260506001026 75 188 8.0 16.0 0.00 0.00 0.00 37 1007.4
20260506000543 76 187 9.0 15.0 0.00 0.00 0.00 37 1007.3
20260506000034 76 183 9.0 15.0 0.00 0.00 0.00 37 1007.3
20260505235525 76 167 10.0 14.0 0.00 0.00 0.00 36 1007.2
20260505235045 76 161 10.0 14.0 0.00 0.00 0.00 37 1007.1
20260505234538 77 182 10.0 18.0 0.00 0.00 0.00 36 1007.1
20260505234030 77 161 11.0 18.0 0.00 0.00 0.00 36 1007.0
20260505233543 77 169 11.0 16.0 0.00 0.00 0.00 36 1007.0
20260505233043 77 154 12.0 17.0 0.00 0.00 0.00 36 1007.1
20260505232530 77 165 11.0 17.0 0.00 0.00 0.00 36 1007.1
20260505232026 78 194 12.0 17.0 0.00 0.00 0.00 36 1007.0
20260505231539 78 177 13.0 17.0 0.00 0.00 0.00 36 1007.0
20260505231035 78 160 12.0 20.0 0.00 0.00 0.00 36 1007.0
20260505230526 78 175 10.0 19.0 0.00 0.00 0.00 36 1006.8
20260505230044 78 186 11.0 17.0 0.00 0.00 0.00 36 1006.9
20260505225536 78 182 12.0 21.0 0.00 0.00 0.00 35 1006.9
20260505225041 78 171 11.0 21.0 0.00 0.00 0.00 36 1007.0
20260505224541 79 190 12.0 20.0 0.00 0.00 0.00 35 1006.9
20260505224037 79 155 13.0 18.0 0.00 0.00 0.00 34 1006.9
20260505223529 79 178 12.0 23.0 0.00 0.00 0.00 33 1006.8
20260505223025 80 188 12.0 24.0 0.00 0.00 0.00 32 1006.9
20260505222531 80 187 17.0 25.0 0.00 0.00 0.00 31 1006.9
20260505222044 80 184 14.0 25.0 0.00 0.00 0.00 29 1006.9
20260505221529 80 187 15.0 25.0 0.00 0.00 0.00 29 1006.8
20260505221043 80 196 15.0 25.0 0.00 0.00 0.00 29 1006.8
20260505220535 80 174 19.0 26.0 0.00 0.00 0.00 28 1006.9
20260505220027 81 186 19.0 26.0 0.00 0.00 0.00 28 1006.9
20260505215540 81 198 16.0 33.0 0.00 0.00 0.00 29 1006.9
20260505215035 81 182 18.0 33.0 0.00 0.00 0.00 29 1006.8
20260505214526 82 185 16.0 24.0 0.00 0.00 0.00 29 1006.8
20260505214047 82 175 14.0 20.0 0.00 0.00 0.00 29 1006.8
20260505213603 83 189 15.0 26.0 0.00 0.00 0.00 29 1006.8
20260505213043 83 223 13.0 28.0 0.00 0.00 0.00 29 1006.8
20260505212600 83 184 15.0 28.0 0.00 0.00 0.00 30 1006.8
20260505212036 83 192 15.0 23.0 0.00 0.00 0.00 29 1006.7
20260505211528 83 188 13.0 28.0 0.00 0.00 0.00 30 1006.7
20260505211044 83 174 18.0 28.0 0.00 0.00 0.00 30 1006.7
20260505210537 83 157 18.0 26.0 0.00 0.00 0.00 30 1006.8
20260505210036 84 170 19.0 24.0 0.00 0.00 0.00 29 1006.7
20260505205526 84 176 10.0 24.0 0.00 0.00 0.00 31 1006.7
20260505205044 83 171 14.0 27.0 0.00 0.00 0.00 30 1006.7
20260505204536 84 169 20.0 27.0 0.00 0.00 0.00 29 1006.9
20260505204033 84 170 15.0 25.0 0.00 0.00 0.00 30 1006.8
20260505203526 84 184 15.0 25.0 0.00 0.00 0.00 32 1006.8
20260505203044 84 163 15.0 24.0 0.00 0.00 0.00 32 1006.8
20260505202542 84 192 15.0 24.0 0.00 0.00 0.00 31 1006.8
20260505202039 84 184 18.0 26.0 0.00 0.00 0.00 31 1006.9
20260505201558 84 190 13.0 26.0 0.00 0.00 0.00 31 1006.7
20260505201034 84 178 15.0 28.0 0.00 0.00 0.00 31 1006.9
20260505200526 84 197 10.0 25.0 0.00 0.00 0.00 32 1006.9
20260505200043 84 205 17.0 24.0 0.00 0.00 0.00 32 1006.9
20260505195542 84 159 17.0 26.0 0.00 0.00 0.00 32 1007.0
20260505195043 84 185 17.0 26.0 0.00 0.00 0.00 32 1007.1
20260505194536 84 182 17.0 26.0 0.00 0.00 0.00 32 1007.2
20260505194027 83 186 18.0 26.0 0.00 0.00 0.00 32 1007.3
20260505193526 83 172 20.0 26.0 0.00 0.00 0.00 32 1007.3
20260505193046 84 159 17.0 26.0 0.00 0.00 0.00 32 1007.5
20260505192542 84 166 9.0 20.0 0.00 0.00 0.00 33 1007.5
20260505192038 83 190 12.0 21.0 0.00 0.00 0.00 32 1007.6
20260505191529 83 232 12.0 25.0 0.00 0.00 0.00 33 1007.6
20260505191049 83 180 16.0 25.0 0.00 0.00 0.00 32 1007.6
20260505190543 83 180 15.0 23.0 0.00 0.00 0.00 32 1007.7
20260505190038 83 178 11.0 22.0 0.00 0.00 0.00 34 1007.7
20260505185533 83 194 15.0 22.0 0.00 0.00 0.00 33 1007.8
20260505185029 83 163 14.0 22.0 0.00 0.00 0.00 33 1007.7
20260505184543 83 186 13.0 22.0 0.00 0.00 0.00 34 1007.8
20260505184042 84 196 13.0 26.0 0.00 0.00 0.00 34 1007.9
20260505183538 84 171 20.0 26.0 0.00 0.00 0.00 32 1007.9
20260505183040 83 153 14.0 25.0 0.00 0.00 0.00 31 1007.9
20260505182531 83 252 12.0 24.0 0.00 0.00 0.00 33 1008.1
20260505182026 83 195 9.0 19.0 0.00 0.00 0.00 33 1008.2
20260505181539 84 221 10.0 17.0 0.00 0.00 0.00 32 1008.2
20260505181033 84 219 9.0 22.0 0.00 0.00 0.00 31 1008.1
20260505180552 84 227 9.0 22.0 0.00 0.00 0.00 32 1008.2
20260505180026 84 192 16.0 27.0 0.00 0.00 0.00 32 1008.3
20260505175538 84 196 10.0 26.0 0.00 0.00 0.00 33 1008.3
20260505175038 84 198 8.0 19.0 0.00 0.00 0.00 33 1008.4
20260505174541 84 194 12.0 24.0 0.00 0.00 0.00 33 1008.3
20260505174036 83 248 14.0 24.0 0.00 0.00 0.00 34 1008.5
20260505173554 83 181 14.0 21.0 0.00 0.00 0.00 32 1008.4
20260505173028 83 236 7.0 16.0 0.00 0.00 0.00 34 1008.4
20260505172605 83 207 7.0 19.0 0.00 0.00 0.00 34 1008.5
20260505172043 83 215 12.0 19.0 0.00 0.00 0.00 33 1008.6
20260505171537 82 207 7.0 16.0 0.00 0.00 0.00 35 1008.6
20260505171059 82 200 6.0 17.0 0.00 0.00 0.00 36 1008.6
20260505170556 81 189 11.0 17.0 0.00 0.00 0.00 35 1008.7
20260505170026 81 229 9.0 16.0 0.00 0.00 0.00 36 1008.8
20260505165544 81 210 10.0 17.0 0.00 0.00 0.00 35 1008.9
20260505165044 82 246 8.0 17.0 0.00 0.00 0.00 34 1008.9
20260505164542 82 184 11.0 22.0 0.00 0.00 0.00 34 1009.0
20260505164041 82 211 10.0 22.0 0.00 0.00 0.00 34 1009.1
20260505163534 82 236 12.0 22.0 0.00 0.00 0.00 33 1009.2
20260505163030 82 192 9.0 22.0 0.00 0.00 0.00 35 1009.2
20260505162541 82 217 8.0 19.0 0.00 0.00 0.00 36 1009.1
20260505162041 81 252 6.0 18.0 0.00 0.00 0.00 36 1009.3
20260505161539 81 215 8.0 22.0 0.00 0.00 0.00 35 1009.5
20260505161039 81 227 9.0 22.0 0.00 0.00 0.00 36 1009.6
20260505160539 81 199 9.0 21.0 0.00 0.00 0.00 37 1009.7
20260505153047 79 212 9.0 20.0 0.00 0.00 0.00 39 1009.9
20260505152542 79 181 6.0 18.0 0.00 0.00 0.00 41 1009.8
20260505152102 79 195 9.0 18.0 0.00 0.00 0.00 41 1009.8
20260505151600 78 215 6.0 14.0 0.00 0.00 0.00 44 1009.7
20260505151035 77 181 6.0 19.0 0.00 0.00 0.00 43 1009.8
20260505150526 78 184 12.0 18.0 0.00 0.00 0.00 42 1009.9
20260505140545 74 209 10.0 17.0 0.00 0.00 0.00 47 1010.0
20260505140105 73 195 10.0 19.0 0.00 0.00 0.00 48 1010.1
20260505125028 67 157 11.0 17.0 0.00 0.00 0.00 57 1010.4
20260505124543 67 162 13.0 17.0 0.00 0.00 0.00 57 1010.5
20260505124041 66 188 12.0 16.0 0.00 0.00 0.00 58 1010.5
20260505123531 66 167 10.0 16.0 0.00 0.00 0.00 59 1010.5
20260505123026 65 169 12.0 18.0 0.00 0.00 0.00 59 1010.6
20260505122605 65 175 9.0 18.0 0.00 0.00 0.00 60 1010.5
20260505122102 64 168 11.0 14.0 0.00 0.00 0.00 60 1010.6
20260505121541 64 171 9.0 13.0 0.00 0.00 0.00 61 1010.7
20260505121040 64 163 10.0 13.0 0.00 0.00 0.00 61 1010.6
20260505120534 63 168 12.0 13.0 0.00 0.00 0.00 61 1010.7
20260505120029 63 148 7.0 14.0 0.00 0.00 0.00 62 1010.6
20260505115604 63 143 10.0 14.0 0.00 0.00 0.00 62 1010.5
20260505115104 63 140 9.0 14.0 0.00 0.00 0.00 62 1010.6
20260505114536 62 176 8.0 14.0 0.00 0.00 0.00 64 1010.6
20260505114033 62 161 10.0 14.0 0.00 0.00 0.00 64 1010.6
20260505113529 61 169 7.0 11.0 0.00 0.00 0.00 65 1010.5
20260505113026 61 166 6.0 11.0 0.00 0.00 0.00 65 1010.4
20260505112602 61 141 7.0 10.0 0.00 0.00 0.00 66 1010.4
20260505112037 61 136 7.0 10.0 0.00 0.00 0.00 66 1010.4
20260505111531 60 169 6.0 10.0 0.00 0.00 0.00 66 1010.4
20260505111027 60 163 8.0 10.0 0.00 0.00 0.00 66 1010.3
20260505110543 60 142 6.0 10.0 0.00 0.00 0.00 67 1010.2
20260505102043 60 160 4.0 5.0 0.00 0.00 0.00 67 1010.1
20260505101535 60 174 3.0 6.0 0.00 0.00 0.00 67 1010.0
20260505101053 60 174 3.0 7.0 0.00 0.00 0.00 67 1010.0
20260505100604 60 165 6.0 7.0 0.00 0.00 0.00 67 1010.0
20260505100036 60 177 5.0 7.0 0.00 0.00 0.00 67 1009.9
20260505095553 60 183 4.0 7.0 0.00 0.00 0.00 67 1010.0
20260505095026 60 196 3.0 7.0 0.00 0.00 0.00 66 1010.0
20260505094540 60 181 4.0 6.0 0.00 0.00 0.00 66 1009.9
20260505094041 60 168 5.0 7.0 0.00 0.00 0.00 66 1009.6
20260505093559 60 173 5.0 7.0 0.00 0.00 0.00 65 1009.6
20260505093039 60 169 5.0 10.0 0.00 0.00 0.00 65 1009.5
20260505092557 60 167 7.0 10.0 0.00 0.00 0.00 65 1009.5
20260505092032 60 172 7.0 9.0 0.00 0.00 0.00 65 1009.5
20260505091524 60 167 7.0 9.0 0.00 0.00 0.00 65 1009.5
20260505091043 61 163 4.0 7.0 0.00 0.00 0.00 65 1009.5
20260505090540 61 155 6.0 7.0 0.00 0.00 0.00 64 1009.5
20260505090035 61 173 5.0 7.0 0.00 0.00 0.00 64 1009.5
20260505085530 61 165 5.0 8.0 0.00 0.00 0.00 63 1009.5
20260505085025 61 169 4.0 8.0 0.00 0.00 0.00 63 1009.5
20260505084536 61 182 5.0 8.0 0.00 0.00 0.00 63 1009.5
20260505084032 62 177 4.0 10.0 0.00 0.00 0.00 62 1009.5
20260505083525 62 180 6.0 10.0 0.00 0.00 0.00 62 1009.5
20260505083043 62 177 7.0 11.0 0.00 0.00 0.00 62 1009.3
20260505082603 62 159 7.0 14.0 0.00 0.00 0.00 62 1009.3
20260505082036 62 170 9.0 13.0 0.00 0.00 0.00 62 1009.3
20260505081529 62 165 10.0 15.0 0.00 0.00 0.00 61 1009.2
20260505081047 62 177 9.0 14.0 0.00 0.00 0.00 61 1009.2
20260505080543 62 190 11.0 17.0 0.00 0.00 0.00 61 1009.2
20260505080040 62 159 12.0 17.0 0.00 0.00 0.00 61 1009.1
20260505075530 62 155 11.0 13.0 0.00 0.00 0.00 61 1009.2
20260505075048 62 182 9.0 11.0 0.00 0.00 0.00 62 1009.1
20260505074543 62 163 10.0 12.0 0.00 0.00 0.00 62 1009.0
20260505074038 62 171 8.0 11.0 0.00 0.00 0.00 63 1009.0
20260505073540 62 182 8.0 11.0 0.00 0.00 0.00 63 1008.9
20260505073041 61 173 7.0 11.0 0.00 0.00 0.00 63 1008.9
20260505072532 61 169 7.0 11.0 0.00 0.00 0.00 63 1008.9
20260505072027 61 167 7.0 10.0 0.00 0.00 0.00 64 1008.9
20260505071604 61 161 7.0 10.0 0.00 0.00 0.00 64 1008.9
20260505071043 61 167 7.0 9.0 0.00 0.00 0.00 64 1008.9
20260505070540 61 170 8.0 9.0 0.00 0.00 0.00 64 1008.8
20260505070043 61 149 7.0 9.0 0.00 0.00 0.00 65 1008.8
20260505065534 61 161 6.0 9.0 0.00 0.00 0.00 65 1008.8
20260505065028 61 155 6.0 9.0 0.00 0.00 0.00 65 1008.9
20260505064543 61 145 5.0 7.0 0.00 0.00 0.00 65 1008.9
20260505064041 62 173 4.0 6.0 0.00 0.00 0.00 65 1008.9
20260505063532 62 173 5.0 6.0 0.00 0.00 0.00 64 1009.1
20260505063026 62 172 6.0 8.0 0.00 0.00 0.00 64 1009.1
20260505062603 62 180 6.0 8.0 0.00 0.00 0.00 64 1009.2
20260505062044 62 179 7.0 9.0 0.00 0.00 0.00 63 1009.1
20260505061541 62 181 6.0 10.0 0.00 0.00 0.00 63 1009.2
20260505061036 63 146 6.0 10.0 0.00 0.00 0.00 63 1009.2
20260505060527 62 172 6.0 9.0 0.00 0.00 0.00 63 1009.2
20260505060025 63 148 6.0 9.0 0.00 0.00 0.00 63 1009.4
20260505055542 63 180 5.0 10.0 0.00 0.00 0.00 63 1009.3
20260505055038 63 161 7.0 10.0 0.00 0.00 0.00 63 1009.3
20260505054526 63 140 5.0 9.0 0.00 0.00 0.00 63 1009.2
20260505054045 63 139 6.0 10.0 0.00 0.00 0.00 63 1009.3
20260505053538 63 166 7.0 10.0 0.00 0.00 0.00 63 1009.2
20260505053056 63 151 6.0 9.0 0.00 0.00 0.00 62 1009.4
20260505052526 63 152 6.0 11.0 0.00 0.00 0.00 61 1009.4
20260505052041 63 169 6.0 15.0 0.00 0.00 0.00 61 1009.3
20260505051601 64 165 7.0 15.0 0.00 0.00 0.00 61 1009.4
20260505051031 64 153 10.0 15.0 0.00 0.00 0.00 61 1009.4
20260505050524 64 157 9.0 12.0 0.00 0.00 0.00 60 1009.3
20260505041543 65 169 8.0 10.0 0.00 0.00 0.00 57 1008.9
20260505041044 66 165 8.0 10.0 0.00 0.00 0.00 57 1009.1
20260505040540 66 165 7.0 11.0 0.00 0.00 0.00 56 1009.0
20260505040035 66 175 8.0 12.0 0.00 0.00 0.00 56 1008.8
20260505035531 66 174 9.0 12.0 0.00 0.00 0.00 55 1008.9
20260505035026 66 195 9.0 13.0 0.00 0.00 0.00 55 1009.0
20260505034538 66 173 10.0 15.0 0.00 0.00 0.00 55 1008.9
20260505034032 66 180 11.0 14.0 0.00 0.00 0.00 55 1008.8
20260505033524 66 185 8.0 13.0 0.00 0.00 0.00 55 1008.8
20260505033039 66 173 8.0 11.0 0.00 0.00 0.00 55 1008.9
20260505032554 66 178 8.0 12.0 0.00 0.00 0.00 55 1009.0
20260505032024 66 160 9.0 13.0 0.00 0.00 0.00 55 1009.1
20260505031542 66 178 9.0 13.0 0.00 0.00 0.00 55 1009.1
20260505031038 66 205 10.0 12.0 0.00 0.00 0.00 55 1009.1
20260505030531 66 185 8.0 11.0 0.00 0.00 0.00 54 1009.1
20260505030024 66 188 9.0 11.0 0.00 0.00 0.00 54 1009.1
20260505025543 66 178 7.0 12.0 0.00 0.00 0.00 55 1009.0
20260505025035 66 183 7.0 9.0 0.00 0.00 0.00 54 1008.8
20260505024526 66 167 7.0 10.0 0.00 0.00 0.00 54 1008.8